{"data":{"norad_id":55815,"epoch":"2026-09-19T18:26:47.512608Z","epoch_age_seconds":81386,"freshness":"FRESH","line1":"1 55815U 23029V   26262.76860547  .00000069  00000+0  15260-3 0  9992","line2":"2 55815  87.8894 270.8440 0002024  90.2033 269.9328 13.14505100171828","mean_motion":13.145051,"eccentricity":0.0002024,"inclination_deg":87.8894,"raan_deg":270.844,"arg_perigee_deg":90.2033,"mean_anomaly_deg":269.9328,"bstar":0.0001526,"rev_number":17182,"period_min":109.54693138886,"perigee_km":1204.2465230967,"apogee_km":1207.3164933088,"semimajor_km":7583.9185082028,"source":"CELESTRAK","updated_at":"2026-09-20T09:00:44.762897Z"}}